(°C)
-11°
-10°
-10°
-9°
-8°
-7°
-6°
(°C)
-16°
-16°
-16°
-15°
-14°
-13°
-12°
جنوب
جنوب
SSW
SSW
SSW
SSW
SW
(كم/سا)
10-22
11-21
11-22
12-22
13-22
13-22
13-22
(مم)
0
0
0
0
0
0
0
(%)
0
0
0
0
0
0
0

مستوى ارتفاع الشمس

/ -21.6°
sun-icon
UV 1
08:51
17:13
هلال المساء (307°)
03:05
15:23

متر ل51.02°شمال 71.47°شرق (UACC)

الوقت الشروط درجة الحرارة/
نقطة الندى
رياح مجال رؤية حالة الطقس غيوم الضغط تغيير خام
VFR °C / °C 180º 8kt >10km - Clouds and Visibility OK 1023 No Significant change UACC 300000Z 18004MPS CAVOK M11/M15 Q1023 NOSIG RMK QFE735/0981
VFR °C / °C 180º 8kt >10km - Clouds and Visibility OK 1023 No Significant change UACC 292330Z 18004MPS CAVOK M12/M15 Q1023 NOSIG RMK QFE736/0981
VFR °C / °C 210º 4kt >10km - Clouds and Visibility OK 1023 No Significant change UACC 292300Z 21002MPS CAVOK M12/M15 Q1023 NOSIG RMK QFE736/0981
VFR °C / °C 180º 6kt >10km - Clouds and Visibility OK 1023 No Significant change UACC 292230Z 18003MPS CAVOK M12/M15 Q1023 NOSIG RMK QFE736/0981
VFR °C / °C 180º 6kt >10km - Clouds and Visibility OK 1023 No Significant change UACC 292200Z 18003MPS CAVOK M12/M15 Q1023 NOSIG RMK QFE736/0982
VFR °C / °C 190º 6kt >10km - Clouds and Visibility OK 1023 No Significant change UACC 292130Z 19003MPS CAVOK M11/M15 Q1023 NOSIG RMK QFE736/0982
VFR °C / °C 190º 4kt >10km - Clouds and Visibility OK 1023 No Significant change UACC 292100Z 19002MPS CAVOK M11/M15 Q1023 NOSIG RMK QFE736/0982
VFR °C / °C 180º 8kt >10km - Clouds and Visibility OK 1024 No Significant change UACC 292030Z 18004MPS CAVOK M11/M15 Q1024 NOSIG RMK QFE736/0982
VFR °C / °C 190º 6kt >10km - Clouds and Visibility OK 1024 No Significant change UACC 292000Z 19003MPS CAVOK M10/M14 Q1024 NOSIG RMK QFE736/0982
VFR °C / °C 170º variable 130º to 190º 8kt >10km - Clouds and Visibility OK 1024 No Significant change UACC 291930Z 17004MPS 130V190 CAVOK M12/M15 Q1024 NOSIG RMK QFE736/0982
VFR °C / °C 160º 6kt. Wind Shear present on Runway 22. >10km - Clouds and Visibility OK 1024 No Significant change UACC 291900Z 16003MPS CAVOK M14/M16 Q1024 WS R22 NOSIG RMK QFE736/0982
VFR °C / °C 170º 4kt. Wind Shear present on Runway 22. >10km - Clouds and Visibility OK 1024 No Significant change UACC 291830Z 17002MPS CAVOK M15/M18 Q1024 WS R22 NOSIG RMK QFE737/0982
VFR °C / °C 160º variable 130º to 200º 6kt >10km - Clouds and Visibility OK 1024 No Significant change UACC 291800Z 16003MPS 130V200 CAVOK M13/M16 Q1024 NOSIG RMK QFE737/0982
VFR °C / °C variable 2kt >10km - Clouds and Visibility OK 1024 No Significant change UACC 291730Z VRB01MPS CAVOK M14/M17 Q1024 NOSIG RMK QFE737/0982
VFR °C / °C 110º 4kt >10km - Clouds and Visibility OK 1024 No Significant change UACC 291700Z 11002MPS CAVOK M17/M20 Q1024 NOSIG RMK QFE737/0982
VFR °C / °C 100º 4kt >10km - Clouds and Visibility OK 1024 No Significant change UACC 291630Z 10002MPS CAVOK M17/M21 Q1024 NOSIG RMK QFE737/0983
VFR °C / °C 150º variable 120º to 180º 4kt >10km - Clouds and Visibility OK 1025 No Significant change UACC 291600Z 15002MPS 120V180 CAVOK M15/M18 Q1025 NOSIG RMK QFE737/0983
VFR °C / °C variable 2kt >10km - Clouds and Visibility OK 1025 No Significant change UACC 291530Z VRB01MPS CAVOK M16/M19 Q1025 NOSIG RMK QFE737/0983
VFR °C / °C variable 2kt >10km - Clouds and Visibility OK 1025 No Significant change UACC 291500Z VRB01MPS CAVOK M14/M18 Q1025 NOSIG RMK QFE737/0983
VFR °C / °C 110º 2kt >10km - Clouds and Visibility OK 1025 No Significant change UACC 291430Z 11001MPS CAVOK M16/M19 Q1025 NOSIG RMK QFE737/0983
VFR °C / °C variable 2kt >10km - Clouds and Visibility OK 1026 No Significant change UACC 291400Z VRB01MPS CAVOK M15/M17 Q1026 NOSIG RMK QFE738/0984
VFR °C / °C 140º 4kt >10km - Clouds and Visibility OK 1026 No Significant change UACC 291330Z 14002MPS CAVOK M15/M18 Q1026 NOSIG RMK QFE738/0984
VFR °C / °C 90º variable 050º to 130º 4kt >10km - Clouds and Visibility OK 1026 No Significant change UACC 291300Z 09002MPS 050V130 CAVOK M14/M18 Q1026 NOSIG RMK QFE738/0984
VFR °C / °C variable 2kt >10km - Clouds and Visibility OK 1026 No Significant change UACC 291230Z VRB01MPS CAVOK M12/M16 Q1026 NOSIG RMK QFE738/0984

VFR

°C / °C

[أكثر]
رياح 180º 8kt
مجال رؤية >10km
حالة الطقس -
غيوم Clouds and Visibility OK
الضغط 1023
تغيير No Significant change
خام UACC 300000Z 18004MPS CAVOK M11/M15 Q1023 NOSIG RMK QFE735/0981

VFR

°C / °C

[أكثر]
رياح 180º 8kt
مجال رؤية >10km
حالة الطقس -
غيوم Clouds and Visibility OK
الضغط 1023
تغيير No Significant change
خام UACC 292330Z 18004MPS CAVOK M12/M15 Q1023 NOSIG RMK QFE736/0981

VFR

°C / °C

[أكثر]
رياح 210º 4kt
مجال رؤية >10km
حالة الطقس -
غيوم Clouds and Visibility OK
الضغط 1023
تغيير No Significant change
خام UACC 292300Z 21002MPS CAVOK M12/M15 Q1023 NOSIG RMK QFE736/0981

VFR

°C / °C

[أكثر]
رياح 180º 6kt
مجال رؤية >10km
حالة الطقس -
غيوم Clouds and Visibility OK
الضغط 1023
تغيير No Significant change
خام UACC 292230Z 18003MPS CAVOK M12/M15 Q1023 NOSIG RMK QFE736/0981

VFR

°C / °C

[أكثر]
رياح 180º 6kt
مجال رؤية >10km
حالة الطقس -
غيوم Clouds and Visibility OK
الضغط 1023
تغيير No Significant change
خام UACC 292200Z 18003MPS CAVOK M12/M15 Q1023 NOSIG RMK QFE736/0982

VFR

°C / °C

[أكثر]
رياح 190º 6kt
مجال رؤية >10km
حالة الطقس -
غيوم Clouds and Visibility OK
الضغط 1023
تغيير No Significant change
خام UACC 292130Z 19003MPS CAVOK M11/M15 Q1023 NOSIG RMK QFE736/0982

VFR

°C / °C

[أكثر]
رياح 190º 4kt
مجال رؤية >10km
حالة الطقس -
غيوم Clouds and Visibility OK
الضغط 1023
تغيير No Significant change
خام UACC 292100Z 19002MPS CAVOK M11/M15 Q1023 NOSIG RMK QFE736/0982

VFR

°C / °C

[أكثر]
رياح 180º 8kt
مجال رؤية >10km
حالة الطقس -
غيوم Clouds and Visibility OK
الضغط 1024
تغيير No Significant change
خام UACC 292030Z 18004MPS CAVOK M11/M15 Q1024 NOSIG RMK QFE736/0982

VFR

°C / °C

[أكثر]
رياح 190º 6kt
مجال رؤية >10km
حالة الطقس -
غيوم Clouds and Visibility OK
الضغط 1024
تغيير No Significant change
خام UACC 292000Z 19003MPS CAVOK M10/M14 Q1024 NOSIG RMK QFE736/0982

VFR

°C / °C

[أكثر]
رياح 170º variable 130º to 190º 8kt
مجال رؤية >10km
حالة الطقس -
غيوم Clouds and Visibility OK
الضغط 1024
تغيير No Significant change
خام UACC 291930Z 17004MPS 130V190 CAVOK M12/M15 Q1024 NOSIG RMK QFE736/0982

VFR

°C / °C

[أكثر]
رياح 160º 6kt. Wind Shear present on Runway 22.
مجال رؤية >10km
حالة الطقس -
غيوم Clouds and Visibility OK
الضغط 1024
تغيير No Significant change
خام UACC 291900Z 16003MPS CAVOK M14/M16 Q1024 WS R22 NOSIG RMK QFE736/0982

VFR

°C / °C

[أكثر]
رياح 170º 4kt. Wind Shear present on Runway 22.
مجال رؤية >10km
حالة الطقس -
غيوم Clouds and Visibility OK
الضغط 1024
تغيير No Significant change
خام UACC 291830Z 17002MPS CAVOK M15/M18 Q1024 WS R22 NOSIG RMK QFE737/0982

VFR

°C / °C

[أكثر]
رياح 160º variable 130º to 200º 6kt
مجال رؤية >10km
حالة الطقس -
غيوم Clouds and Visibility OK
الضغط 1024
تغيير No Significant change
خام UACC 291800Z 16003MPS 130V200 CAVOK M13/M16 Q1024 NOSIG RMK QFE737/0982

VFR

°C / °C

[أكثر]
رياح variable 2kt
مجال رؤية >10km
حالة الطقس -
غيوم Clouds and Visibility OK
الضغط 1024
تغيير No Significant change
خام UACC 291730Z VRB01MPS CAVOK M14/M17 Q1024 NOSIG RMK QFE737/0982

VFR

°C / °C

[أكثر]
رياح 110º 4kt
مجال رؤية >10km
حالة الطقس -
غيوم Clouds and Visibility OK
الضغط 1024
تغيير No Significant change
خام UACC 291700Z 11002MPS CAVOK M17/M20 Q1024 NOSIG RMK QFE737/0982

VFR

°C / °C

[أكثر]
رياح 100º 4kt
مجال رؤية >10km
حالة الطقس -
غيوم Clouds and Visibility OK
الضغط 1024
تغيير No Significant change
خام UACC 291630Z 10002MPS CAVOK M17/M21 Q1024 NOSIG RMK QFE737/0983

VFR

°C / °C

[أكثر]
رياح 150º variable 120º to 180º 4kt
مجال رؤية >10km
حالة الطقس -
غيوم Clouds and Visibility OK
الضغط 1025
تغيير No Significant change
خام UACC 291600Z 15002MPS 120V180 CAVOK M15/M18 Q1025 NOSIG RMK QFE737/0983

VFR

°C / °C

[أكثر]
رياح variable 2kt
مجال رؤية >10km
حالة الطقس -
غيوم Clouds and Visibility OK
الضغط 1025
تغيير No Significant change
خام UACC 291530Z VRB01MPS CAVOK M16/M19 Q1025 NOSIG RMK QFE737/0983

VFR

°C / °C

[أكثر]
رياح variable 2kt
مجال رؤية >10km
حالة الطقس -
غيوم Clouds and Visibility OK
الضغط 1025
تغيير No Significant change
خام UACC 291500Z VRB01MPS CAVOK M14/M18 Q1025 NOSIG RMK QFE737/0983

VFR

°C / °C

[أكثر]
رياح 110º 2kt
مجال رؤية >10km
حالة الطقس -
غيوم Clouds and Visibility OK
الضغط 1025
تغيير No Significant change
خام UACC 291430Z 11001MPS CAVOK M16/M19 Q1025 NOSIG RMK QFE737/0983

VFR

°C / °C

[أكثر]
رياح variable 2kt
مجال رؤية >10km
حالة الطقس -
غيوم Clouds and Visibility OK
الضغط 1026
تغيير No Significant change
خام UACC 291400Z VRB01MPS CAVOK M15/M17 Q1026 NOSIG RMK QFE738/0984

VFR

°C / °C

[أكثر]
رياح 140º 4kt
مجال رؤية >10km
حالة الطقس -
غيوم Clouds and Visibility OK
الضغط 1026
تغيير No Significant change
خام UACC 291330Z 14002MPS CAVOK M15/M18 Q1026 NOSIG RMK QFE738/0984

VFR

°C / °C

[أكثر]
رياح 90º variable 050º to 130º 4kt
مجال رؤية >10km
حالة الطقس -
غيوم Clouds and Visibility OK
الضغط 1026
تغيير No Significant change
خام UACC 291300Z 09002MPS 050V130 CAVOK M14/M18 Q1026 NOSIG RMK QFE738/0984

VFR

°C / °C

[أكثر]
رياح variable 2kt
مجال رؤية >10km
حالة الطقس -
غيوم Clouds and Visibility OK
الضغط 1026
تغيير No Significant change
خام UACC 291230Z VRB01MPS CAVOK M12/M16 Q1026 NOSIG RMK QFE738/0984

انقر ل51.02°شمال 71.47°شرق (UACC)

From till


Maximum Temperature -7ºC on . Minimum Temperature -14ºC on .
From till Wind 180º 8kt. Visibility 10km or more. Scattered Clouds 4000ft. Broken Clouds 10000ft.
Becoming from till Wind 210º 12kt. Visibility 10km or more. Scattered Clouds 4000ft. Broken Clouds 10000ft.
Temporarly from till Wind variable 4kt. Visibility 3100m. Mist . Few Clouds 500ft. Scattered Clouds 1100ft.

خام: TAF UACC 292301Z 3000/3024 18004MPS 9999 SCT040 BKN100 TXM07/3009Z TNM14/3001Z BECMG 3004/3006 21006MPS TEMPO 3014/3024 VRB02MPS 3100 BR FEW005 SCT011

صور الأقمار الصناعية الملتقطة و الأمطار حالياً ل51.02°شمال 71.47°شرق

المؤشر يدل على موقع 51.02°شمال 71.47°شرق. [أكثر]

تجمع صورة الأقمار الصناعية في الوقت الفعلي بين الضوء المرئي أثناء النهار والأشعة تحت الحمراء أثناء الليل. لا تبدو الصورة مظلمة ليلاً، لأن الأشعة تحت الحمراء يمكنها الكشف عن الاختلافات في درجة الحرارة. لسوء الحظ ، يصعب التمييز بين السحب المنخفضة والضباب ودرجات حرارة الأرض ، وبالتالي يمكن أن تكون الصور غير مرئية تقريبًا أثناء الليل. يتم تحديث صور الأقمار الصناعية Meteosat الخاصة بأوروبا في الوقت الفعلي كل 5 دقائق، بينما يتم تحديث صور GOES-16 / GOES-17 (أمريكا الشمالية والجنوبية) و Himawari (آسيا) كل 10 دقائق.

حقوق النسخ 2021 EUMETSAT / meteoblue. / حقوق النسخ 2021 meteoblue

رادار وهطول الأمطار التنبؤ الآني ل51.02°شمال 71.47°شرق

رذاذ
ضوء
معتدل
ثقيل
ثقيل جدا
وابل

مؤشر المكان يشير الى 51.02°شمال 71.47°شرق. تظهر في هذه الرسوم المتحركة هطول الامطار بالرادار للساعة الماضية, و توقعات 1h. رذاذ أو تساقط ثلوج خفيف قد يكون غير مرئي للرادار. كثافة هطول الأمطار مرمزة بالألوان وتتراوح من الأزرق الفاتح إلى البرتقالي.